This is the latest recevied weather packets stored in our database for station/object W4UWO. If no packets are shown the sender has not sent any weather packets the latest 10 day(s).
| Time | Temp. | Humidity | Pressure | Rain* | Wind** | Luminosity | Snow |
|---|---|---|---|---|---|---|---|
| 1788504243 | 25.56° C | 86% | 1016.5 hPa | 0 mm | - | 0 W/m² | - |
| 1788503938 | 25.56° C | 85% | 1016.8 hPa | 0 mm | - | 0 W/m² | - |
| 1788503634 | 25.56° C | 85% | 1016.8 hPa | 0 mm | - | 0 W/m² | - |
| 1788503329 | 26.11° C | 85% | 1016.7 hPa | 0 mm | - | 0 W/m² | - |
| 1788503025 | 26.11° C | 84% | 1016.7 hPa | 0 mm | - | 0 W/m² | - |
| 1788502721 | 26.11° C | 84% | 1016.8 hPa | 0 mm | - | 0 W/m² | - |
| 1788502417 | 26.67° C | 83% | 1016.6 hPa | 0 mm | - | 0 W/m² | - |
| 1788502113 | 26.67° C | 82% | 1016.6 hPa | 0 mm | - | 0 W/m² | - |
| 1788501809 | 27.22° C | 81% | 1016.7 hPa | 0 mm | - | 0 W/m² | - |
| 1788501504 | 26.67° C | 81% | 1016.7 hPa | 0 mm | - | 0 W/m² | - |
| 1788501199 | 26.11° C | 84% | 1016.8 hPa | 0 mm | - | 0 W/m² | - |
| 1788500895 | 26.11° C | 84% | 1016.6 hPa | 0 mm | - | 0 W/m² | - |
| 1788500591 | 26.67° C | 83% | 1016.7 hPa | 0 mm | - | 0 W/m² | - |
| 1788500286 | 26.67° C | 83% | 1016.7 hPa | 0 mm | - | 0 W/m² | - |
| 1788499999 | 26.67° C | 83% | 1016.6 hPa | 0 mm | - | 0 W/m² | - |
| 1788499681 | 27.22° C | 81% | 1016.7 hPa | 0 mm | - | 0 W/m² | - |
| 1788499378 | 26.67° C | 81% | 1016.7 hPa | 0 mm | - | 0 W/m² | - |
| 1788499074 | 26.67° C | 83% | 1016.8 hPa | 0 mm | - | 0 W/m² | - |
| 1788498769 | 27.22° C | 82% | 1016.9 hPa | 0 mm | - | 0 W/m² | - |
| 1788498464 | 27.22° C | 80% | 1016.8 hPa | 0 mm | - | 0 W/m² | - |
| 1788498161 | 27.78° C | 80% | 1016.6 hPa | 0 mm | - | 0 W/m² | - |
| 1788497861 | 27.22° C | 81% | 1016.7 hPa | 0 mm | - | 0 W/m² | - |
| 1788497555 | 27.22° C | 81% | 1016.9 hPa | 0 mm | - | 0 W/m² | - |
| 1788497250 | 27.22° C | 80% | 1016.6 hPa | 0 mm | - | 0 W/m² | - |
| 1788496947 | 27.22° C | 80% | 1016.8 hPa | 0 mm | - | 0 W/m² | - |
* Rain latest hour (hover to see other rain measurements)
** Current wind speed in m/s (hover to see current wind gust speed)